KJ4EBE Weather Reports


time (UTC)temp
C
wind
direction
speed
KPH
gust
KPH
rain 1hr
cm
rain 24hr
cm
rain mn
cm
humidity
%
barometer
mb
20260506070334 23 209 3.2 4.8 0.00 0.00 0.00 93 1008.3
20260506062312 23 282 0.0 4.8 0.00 0.00 0.00 93 1008.6
20260506061807 23 218 0.0 1.6 0.00 0.00 0.00 94 1008.5
20260506061304 23 62 0.0 1.6 0.00 0.00 0.00 94 1008.4
20260506060803 23 53 0.0 4.8 0.00 0.00 0.00 94 1008.4
20260506060300 23 289 0.0 4.8 0.00 0.00 0.00 94 1008.2
20260506051232 23 155 3.2 6.4 0.00 0.00 0.00 94 1007.2
20260506050730 23 180 1.6 6.4 0.00 0.00 0.00 93 1007.4
20260506050227 23 202 0.0 4.8 0.00 0.00 0.00 93 1007.4
20260506044718 23 37 0.0 3.2 0.00 0.00 0.00 92 1007.5
20260506044215 23 206 1.6 4.8 0.00 0.00 0.00 92 1007.5
20260506043712 23 344 3.2 11.3 0.00 0.00 0.00 91 1007.4
20260506043210 23 216 3.2 4.8 0.00 0.00 0.00 91 1007.3
20260506042709 23 245 0.0 4.8 0.00 0.00 0.00 91 1007.2
20260506042206 23 162 0.0 3.2 0.00 0.00 0.00 91 1007.2
20260506041705 23 44 0.0 4.8 0.00 0.00 0.00 91 1007.2
20260506041201 23 75 0.0 3.2 0.00 0.00 0.00 90 1007.4
20260506040658 23 11 0.0 3.2 0.00 0.00 0.00 90 1007.4
20260506040155 23 50 0.0 4.8 0.00 0.00 0.00 90 1007.2
20260506035652 23 249 0.0 6.4 0.00 0.00 0.00 90 1007.2
20260506035149 23 164 0.0 4.8 0.00 0.00 0.00 89 1007.5
20260506034646 23 140 0.0 4.8 0.00 0.00 0.00 89 1007.4
20260506034143 23 104 0.0 4.8 0.00 0.00 0.00 89 1007.0
20260506033640 23 245 0.0 4.8 0.00 0.00 0.00 89 1007.1
20260506033137 24 71 0.0 4.8 0.00 0.00 0.00 88 1007.0
20260506032634 24 238 0.0 6.4 0.00 0.00 0.00 88 1007.1
20260506032131 24 210 4.8 4.8 0.00 0.00 0.00 88 1007.1
20260506031628 24 61 0.0 6.4 0.00 0.00 0.00 87 1006.9
20260506031125 24 217 4.8 8.0 0.00 0.00 0.00 87 1006.9
20260506030624 24 322 0.0 4.8 0.00 0.00 0.00 86 1006.9
20260506030120 24 296 0.0 6.4 0.00 0.00 0.00 86 1007.1
20260506025617 24 217 0.0 6.4 0.00 0.00 0.00 86 1006.7
20260506025113 24 105 1.6 8.0 0.00 0.00 0.00 86 1006.6
20260506024611 25 208 1.6 6.4 0.00 0.00 0.00 85 1006.5
20260506024107 25 226 0.0 3.2 0.00 0.00 0.00 85 1006.4
20260506023603 25 230 0.0 3.2 0.00 0.00 0.00 85 1006.2
20260506023101 25 319 1.6 3.2 0.00 0.00 0.00 84 1006.1
20260506022558 25 164 0.0 4.8 0.00 0.00 0.00 84 1006.2
20260506022055 25 244 0.0 3.2 0.00 0.00 0.00 84 1006.3
20260506021553 25 64 1.6 4.8 0.00 0.00 0.00 84 1006.3
20260506021050 25 337 0.0 6.4 0.00 0.00 0.00 83 1006.2
20260506020547 25 142 1.6 4.8 0.00 0.00 0.00 83 1006.1
20260506020044 25 230 0.0 1.6 0.00 0.00 0.00 83 1006.1
20260506015542 25 150 0.0 4.8 0.00 0.00 0.00 82 1006.1
20260506015039 25 77 1.6 4.8 0.00 0.00 0.00 82 1005.7
20260506014536 25 208 0.0 4.8 0.00 0.00 0.00 82 1005.8
20260506014032 26 22 0.0 3.2 0.00 0.00 0.00 81 1005.7
20260506013531 26 118 1.6 8.0 0.00 0.00 0.00 81 1005.8
20260506013026 26 60 3.2 6.4 0.00 0.00 0.00 81 1005.6
20260506012522 26 49 1.6 8.0 0.00 0.00 0.00 80 1005.4
20260506012020 26 185 3.2 4.8 0.00 0.00 0.00 80 1005.5
20260506011517 26 164 0.0 8.0 0.00 0.00 0.00 79 1005.5
20260506011014 26 135 3.2 3.2 0.00 0.00 0.00 79 1005.3
20260506010513 26 39 3.2 4.8 0.00 0.00 0.00 78 1005.3
20260506010009 26 288 0.0 3.2 0.00 0.00 0.00 78 1005.5
20260506005507 27 251 1.6 4.8 0.00 0.00 0.00 77 1005.3
20260506005002 27 191 3.2 6.4 0.00 0.00 0.00 76 1005.3
20260506004500 27 193 9.7 14.5 0.00 0.00 0.00 76 1005.3
20260506003955 27 213 3.2 8.0 0.00 0.00 0.00 75 1005.0
20260506003452 27 216 9.7 11.3 0.00 0.00 0.00 74 1005.2
20260506002948 27 78 1.6 8.0 0.00 0.00 0.00 74 1005.1
20260506002445 28 139 3.2 9.7 0.00 0.00 0.00 73 1005.3
20260506001940 28 75 0.0 4.8 0.00 0.00 0.00 73 1005.3
20260506001437 28 154 3.2 6.4 0.00 0.00 0.00 72 1005.3
20260506000935 29 249 1.6 6.4 0.00 0.00 0.00 71 1005.3
20260506000432 29 193 0.0 6.4 0.00 0.00 0.00 71 1005.2
20260505235929 29 117 1.6 3.2 0.00 0.00 0.00 71 1005.2
20260505235427 29 48 0.0 3.2 0.00 0.00 0.00 70 1005.4
20260505234923 29 79 1.6 6.4 0.00 0.00 0.00 70 1005.3
20260505234421 30 169 3.2 8.0 0.00 0.00 0.00 70 1005.2
20260505233917 30 254 3.2 6.4 0.00 0.00 0.00 67 1005.3
20260505233416 30 39 0.0 4.8 0.00 0.00 0.00 64 1005.2
20260505232913 30 169 3.2 3.2 0.00 0.00 0.00 63 1005.1
20260505232411 30 243 0.0 3.2 0.00 0.00 0.00 64 1005.1
20260505231907 30 244 3.2 8.0 0.00 0.00 0.00 63 1005.2
20260505231405 30 193 6.4 8.0 0.00 0.00 0.00 62 1005.2
20260505230903 31 245 1.6 4.8 0.00 0.00 0.00 62 1005.1
20260505230400 30 231 0.0 8.0 0.00 0.00 0.00 64 1005.1
20260505225856 30 314 0.0 1.6 0.00 0.00 0.00 62 1004.9
20260505225354 30 215 0.0 8.0 0.00 0.00 0.00 64 1005.0
20260505224848 30 136 9.7 11.3 0.00 0.00 0.00 64 1005.0
20260505224347 31 209 1.6 14.5 0.00 0.00 0.00 62 1005.0
20260505223843 31 252 8.0 9.7 0.00 0.00 0.00 62 1005.0
20260505223340 31 78 8.0 9.7 0.00 0.00 0.00 63 1005.0
20260505222836 31 136 1.6 11.3 0.00 0.00 0.00 62 1005.2
20260505222332 31 57 0.0 4.8 0.00 0.00 0.00 62 1005.0
20260505221830 31 225 3.2 8.0 0.00 0.00 0.00 62 1005.1
20260505221326 31 240 6.4 9.7 0.00 0.00 0.00 62 1005.1
20260505220823 31 346 3.2 6.4 0.00 0.00 0.00 63 1005.0
20260505220320 31 158 3.2 9.7 0.00 0.00 0.00 64 1004.9
20260505215818 31 208 3.2 6.4 0.00 0.00 0.00 63 1005.0
20260505215316 31 229 3.2 8.0 0.00 0.00 0.00 62 1005.1
20260505214814 31 215 4.8 8.0 0.00 0.00 0.00 62 1005.1
20260505214311 31 224 6.4 6.4 0.00 0.00 0.00 63 1005.1
20260505213808 32 134 1.6 4.8 0.00 0.00 0.00 62 1005.1
20260505213306 31 217 4.8 11.3 0.00 0.00 0.00 64 1005.4
20260505212801 31 336 0.0 9.7 0.00 0.00 0.00 64 1005.4
20260505212259 31 240 8.0 8.0 0.00 0.00 0.00 63 1005.5
20260505211755 31 298 3.2 4.8 0.00 0.00 0.00 64 1005.4
20260505211253 31 49 4.8 8.0 0.00 0.00 0.00 65 1005.4
20260505210749 32 254 8.0 8.0 0.00 0.00 0.00 60 1005.5
20260505210246 31 121 0.0 3.2 0.00 0.00 0.00 66 1005.5
20260505205743 31 217 4.8 6.4 0.00 0.00 0.00 62 1005.5
20260505205241 31 249 6.4 9.7 0.00 0.00 0.00 64 1005.6
20260505204737 31 269 0.0 11.3 0.00 0.00 0.00 64 1005.7
20260505204236 31 176 3.2 8.0 0.00 0.00 0.00 65 1005.9
20260505203732 31 139 1.6 9.7 0.00 0.00 0.00 65 1006.0
20260505203229 31 191 4.8 14.5 0.00 0.00 0.00 64 1006.0
20260505202725 31 298 1.6 6.4 0.00 0.00 0.00 63 1006.0
20260505202221 31 152 1.6 8.0 0.00 0.00 0.00 64 1005.8
20260505201718 31 282 4.8 8.0 0.00 0.00 0.00 63 1005.9
20260505201216 31 76 0.0 9.7 0.00 0.00 0.00 64 1005.7
20260505200714 31 145 0.0 9.7 0.00 0.00 0.00 62 1005.9
20260505200210 31 59 1.6 14.5 0.00 0.00 0.00 64 1005.8
20260505195706 31 69 3.2 6.4 0.00 0.00 0.00 63 1005.8
20260505195204 31 49 6.4 11.3 0.00 0.00 0.00 64 1006.0
20260505194701 30 181 0.0 8.0 0.00 0.00 0.00 66 1006.1
20260505194157 30 243 3.2 8.0 0.00 0.00 0.00 64 1006.1
20260505193653 30 93 8.0 12.9 0.00 0.00 0.00 64 1006.0
20260505193151 30 216 4.8 12.9 0.00 0.00 0.00 65 1006.1
20260505192649 30 197 3.2 9.7 0.00 0.00 0.00 66 1006.4
20260505192146 30 238 6.4 17.7 0.00 0.00 0.00 66 1006.3
20260505191645 30 113 4.8 9.7 0.00 0.00 0.00 67 1006.3
20260505191142 30 99 8.0 9.7 0.00 0.00 0.00 68 1006.4
20260505190638 30 271 6.4 16.1 0.00 0.00 0.00 68 1006.4
20260505190133 29 207 4.8 9.7 0.00 0.00 0.00 68 1006.3
20260505185630 29 123 8.0 17.7 0.00 0.00 0.00 69 1006.5
20260505185126 29 108 0.0 9.7 0.00 0.00 0.00 71 1006.9
20260505184623 29 271 0.0 11.3 0.00 0.00 0.00 70 1006.9
20260505184120 28 155 0.0 14.5 0.00 0.00 0.00 71 1006.7
20260505183616 28 111 3.2 11.3 0.00 0.00 0.00 71 1007.0
20260505183114 29 103 0.0 12.9 0.00 0.00 0.00 72 1007.1
20260505182610 29 245 9.7 17.7 0.00 0.00 0.00 69 1007.1
20260505182107 29 109 0.0 14.5 0.00 0.00 0.00 70 1007.2
20260505181604 28 248 3.2 9.7 0.00 0.00 0.00 70 1007.0
20260505181101 28 202 4.8 12.9 0.00 0.00 0.00 71 1007.3
20260505180556 28 192 1.6 12.9 0.00 0.00 0.00 72 1007.3
20260505180055 28 145 6.4 12.9 0.00 0.00 0.00 71 1007.4
20260505175550 28 220 0.0 8.0 0.00 0.00 0.00 70 1007.3
20260505175047 28 123 0.0 6.4 0.00 0.00 0.00 71 1007.6
20260505174544 28 190 6.4 17.7 0.00 0.00 0.00 71 1007.6
20260505174040 27 25 0.0 19.3 0.00 0.00 0.00 75 1007.6
20260505173537 28 60 3.2 14.5 0.00 0.00 0.00 71 1007.4
20260505173034 28 215 3.2 6.4 0.00 0.00 0.00 72 1007.5
20260505172532 27 268 8.0 12.9 0.00 0.00 0.00 72 1007.6
20260505172028 28 256 11.3 12.9 0.00 0.00 0.00 71 1007.8
20260505171522 28 250 12.9 17.7 0.00 0.00 0.00 72 1007.6
20260505171020 27 262 1.6 8.0 0.00 0.00 0.00 74 1007.5
20260505170516 27 242 6.4 22.5 0.00 0.00 0.00 74 1007.5
20260505170012 27 137 0.0 9.7 0.00 0.00 0.00 73 1007.3
20260505165507 27 240 1.6 19.3 0.00 0.00 0.00 73 1007.2
20260505165004 27 244 11.3 20.9 0.00 0.00 0.00 73 1007.3
20260505164500 26 227 6.4 24.1 0.00 0.00 0.00 74 1007.4
20260505163958 27 181 4.8 8.0 0.00 0.00 0.00 74 1007.4
20260505163456 26 263 6.4 16.1 0.00 0.00 0.00 74 1007.4
20260505162956 26 262 4.8 17.7 0.00 0.00 0.00 75 1007.3
20260505162451 26 175 4.8 11.3 0.00 0.00 0.00 75 1007.4
20260505161948 26 193 6.4 16.1 0.00 0.00 0.00 75 1007.5
20260505161444 26 154 3.2 9.7 0.00 0.00 0.00 75 1007.8
20260505160942 26 236 3.2 14.5 0.00 0.00 0.00 76 1007.6
20260505160440 26 159 3.2 12.9 0.00 0.00 0.00 76 1007.8
20260505152916 25 256 3.2 14.5 0.00 0.00 0.00 79 1007.6
20260505152413 25 203 4.8 11.3 0.00 0.00 0.00 80 1007.6
20260505151908 25 195 9.7 9.7 0.00 0.00 0.00 80 1007.6
20260505151405 25 259 6.4 19.3 0.00 0.00 0.00 80 1007.6
20260505150902 25 242 3.2 9.7 0.00 0.00 0.00 80 1007.6
20260505150359 24 216 3.2 17.7 0.00 0.00 0.00 82 1007.6
20260505140328 22 53 3.2 11.3 0.00 0.00 0.00 87 1007.5
20260505130252 22 60 4.8 11.3 0.00 0.00 0.00 89 1006.8
20260505124742 21 274 1.6 12.9 0.00 0.00 0.00 89 1006.7
20260505124239 21 324 3.2 9.7 0.00 0.00 0.00 89 1006.4
20260505123734 21 271 3.2 9.7 0.00 0.00 0.00 89 1006.4
20260505123231 21 206 0.0 11.3 0.00 0.00 0.00 90 1006.4
20260505122728 21 214 6.4 11.3 0.00 0.00 0.00 90 1006.3
20260505122225 21 178 4.8 12.9 0.00 0.00 0.00 90 1006.2
20260505121717 21 105 1.6 6.4 0.00 0.00 0.00 90 1006.2
20260505121213 21 215 0.0 9.7 0.00 0.00 0.00 90 1006.4
20260505120710 21 323 3.2 4.8 0.00 0.00 0.00 91 1006.1
20260505120205 21 52 3.2 8.0 0.00 0.00 0.00 91 1006.2
20260505115658 21 330 0.0 6.4 0.00 0.00 0.00 91 1006.2
20260505115157 21 217 4.8 9.7 0.00 0.00 0.00 91 1006.0
20260505114654 21 324 1.6 8.0 0.00 0.00 0.00 91 1005.8
20260505114150 21 196 1.6 6.4 0.00 0.00 0.00 91 1006.0
20260505113647 21 53 6.4 9.7 0.00 0.00 0.00 91 1006.0
20260505113144 21 243 0.0 4.8 0.00 0.00 0.00 91 1006.1
20260505112640 21 231 1.6 4.8 0.00 0.00 0.00 91 1006.0
20260505112138 21 242 1.6 9.7 0.00 0.00 0.00 91 1005.9
20260505111637 21 311 3.2 6.4 0.00 0.00 0.00 90 1005.9
20260505111133 21 22 0.0 14.5 0.00 0.00 0.00 90 1006.0
20260505110629 21 68 0.0 11.3 0.00 0.00 0.00 90 1006.1
20260505110127 21 63 3.2 9.7 0.00 0.00 0.00 90 1006.3
20260505102102 21 88 3.2 16.1 0.00 0.00 0.00 90 1006.1
20260505101601 21 177 3.2 17.7 0.00 0.00 0.00 90 1006.1
20260505101057 21 227 6.4 8.0 0.00 0.00 0.00 90 1005.8
20260505100553 21 91 6.4 12.9 0.00 0.00 0.00 90 1005.9
20260505100050 21 100 0.0 11.3 0.00 0.00 0.00 90 1006.2
20260505095547 21 251 4.8 9.7 0.00 0.00 0.00 90 1006.0
20260505095043 21 162 3.2 11.3 0.00 0.00 0.00 90 1006.3
20260505094540 21 187 3.2 9.7 0.00 0.00 0.00 90 1006.4
20260505094036 21 245 0.0 4.8 0.00 0.00 0.00 90 1006.1
20260505093533 21 37 3.2 8.0 0.00 0.00 0.00 90 1006.1
20260505093030 21 158 1.6 9.7 0.00 0.00 0.00 90 1005.9
20260505092527 21 206 4.8 6.4 0.00 0.00 0.00 90 1006.1
20260505092026 21 80 0.0 6.4 0.00 0.00 0.00 90 1006.0
20260505091522 21 257 1.6 9.7 0.00 0.00 0.00 90 1006.2
20260505091020 21 246 1.6 6.4 0.00 0.00 0.00 90 1006.2
20260505090518 21 75 3.2 8.0 0.00 0.00 0.00 90 1006.3
20260505090016 21 43 1.6 9.7 0.00 0.00 0.00 90 1006.3
20260505085514 21 188 3.2 9.7 0.00 0.00 0.00 90 1006.3
20260505085011 21 280 3.2 8.0 0.00 0.00 0.00 90 1006.4
20260505084509 21 260 4.8 8.0 0.00 0.00 0.00 91 1006.4
20260505084007 21 68 3.2 8.0 0.00 0.00 0.00 91 1006.7
20260505083504 21 182 3.2 16.1 0.00 0.00 0.00 90 1006.6
20260505083000 21 122 1.6 9.7 0.00 0.00 0.00 90 1006.5
20260505082455 21 185 3.2 9.7 0.00 0.00 0.00 90 1006.8
20260505081953 21 160 0.0 11.3 0.00 0.00 0.00 90 1006.8
20260505081449 21 343 3.2 14.5 0.00 0.00 0.00 90 1007.0
20260505080946 21 279 0.0 6.4 0.00 0.00 0.00 90 1007.1
20260505080442 21 255 1.6 9.7 0.00 0.00 0.00 90 1007.2
20260505075938 21 116 4.8 9.7 0.00 0.00 0.00 90 1006.9
20260505075435 21 57 0.0 6.4 0.00 0.00 0.00 90 1006.9
20260505074932 21 73 4.8 8.0 0.00 0.00 0.00 90 1006.9
20260505074430 21 223 1.6 6.4 0.00 0.00 0.00 90 1007.1
20260505073926 21 308 1.6 6.4 0.00 0.00 0.00 90 1007.3
20260505073424 21 232 0.0 6.4 0.00 0.00 0.00 90 1007.3
20260505072921 21 227 6.4 6.4 0.00 0.00 0.00 90 1007.5
20260505072417 21 238 0.0 17.7 0.00 0.00 0.00 90 1007.2
20260505071914 21 243 3.2 4.8 0.00 0.00 0.00 90 1007.3
20260505071410 21 187 3.2 14.5 0.00 0.00 0.00 89 1007.6
20260505070908 21 55 4.8 8.0 0.00 0.00 0.00 89 1007.6